Regional Weather Roundup
Issued by NWS Kansas City/Pleasant Hill, MO

Home | Current Version | Previous Version | Text Only | Print | Product List | Glossary On
Versions: 1 2 3 4 5 6 7 8 9 10 11 12 13 14 15 16 17 18 19 20 21 22 23 24 25 26 27
000
ASUS43 KEAX 191210
RWREAX

WEATHER ROUNDUP FOR EASTERN KANSAS AND NORTHWEST MISSOURI
NATIONAL WEATHER SERVICE KANSAS CITY/PLEASANT HILL MO
700 AM CDT THU OCT 19 2017

KSZ040-057-103>105-MOZ028-029-037-043-191300-
...KANSAS CITY METROPOLITAN AREA...

CITY           SKY/WX    TMP DP  RH WIND       PRES   REMARKS
K.C. INTL      CLEAR     49  47  93 S8        30.09R
6HR MIN TEMP:  49; 6HR MAX TEMP:  57;

K.C. DOWNTOWN  CLEAR     54  50  86 NE3       30.09R
6HR MIN TEMP:  53; 6HR MAX TEMP:  62;

LEES SUMMIT    CLEAR     53  48  83 S7        30.10S
6HR MIN TEMP:  53; 6HR MAX TEMP:  61;

OLATHE - IXD   CLEAR     50  47  89 S7        30.10S
6HR MIN TEMP:  48; 6HR MAX TEMP:  55;

OLATHE - OJC   CLEAR     52  47  83 S6        30.10R
6HR MIN TEMP:  51; 6HR MAX TEMP:  56;

LAWRENCE       CLEAR     45  44  97 CALM      30.09R

$$

MOZ001>008-011>017-020>025-030>033-038>040-044>046-053-054-191300-
...NORTHERN AND CENTRAL MISSOURI...

CITY           SKY/WX    TMP DP  RH WIND       PRES   REMARKS
ST. JOSEPH     FOG       42  42 100 N3        30.08R VSB 1/4
6HR MIN TEMP:  41; 6HR MAX TEMP:  48;

MOSBY          SUNNY     46  45  93 CALM      30.10S
WARRENSBURG    CLEAR     50  45  81 S7        30.11S
WHITEMAN AFB   CLEAR     50  46  85 S9        30.08R
6HR MIN TEMP:  50; 6HR MAX TEMP:  53;

CLINTON        CLEAR     54  46  76 S5        30.14R
SEDALIA        CLEAR     57  49  74 SW9       30.13R
6HR MIN TEMP:  57; 6HR MAX TEMP:  61;

WARSAW         NOT AVBL
CHILLICOTHE      N/A     46  45  96 CALM      30.11R
6HR MIN TEMP:  46; 6HR MAX TEMP:  53;

KIRKSVILLE     CLEAR     50  49  96 SW6       30.12R
6HR MIN TEMP:  47; 6HR MAX TEMP:  54;


$$

MOZ041-047>049-056>058-063>065-088>090-097-191300-
...EASTERN AND SOUTHERN MISSOURI...

CITY           SKY/WX    TMP DP  RH WIND       PRES   REMARKS
ST. LOUIS INTL PTCLDY    58  49  72 S3        30.16S
6HR MIN TEMP:  54; 6HR MAX TEMP:  60;

SPIRIT OF STL  CLEAR     46  46 100 CALM      30.15R
COLUMBIA       CLEAR     49  46  90 S7        30.14R
JEFFERSON CITY CLEAR     48  44  86 E3        30.15R
ROLLA          CLEAR     53  48  83 S12       30.17S
OSAGE BEACH    CLEAR     49  47  93 SE5       30.16S
SPRINGFIELD    CLEAR     50  47  89 S5        30.16S
BRANSON        CLEAR     50  48  93 S7        30.20S
JOPLIN         CLEAR     53  48  83 S8        30.16R
WEST PLAINS    CLEAR     44  42  93 CALM      30.21R FOG

$$

IAZ060-094-KSZ022-034>040-054-083-096-NEZ052-066-093-191300-
...KANSAS...SOUTHEAST NEBRASKA AND IOWA...

CITY           SKY/WX    TMP DP  RH WIND       PRES   REMARKS
TOPEKA         CLEAR     48  48 100 CALM      30.08R FOG
6HR MIN TEMP:  47; 6HR MAX TEMP:  53;

MANHATTAN      CLEAR     44  43  96 CALM      30.06R FOG
EMPORIA        CLEAR     51  46  83 S13       30.08S
CHANUTE        CLEAR     49  46  90 SE7       30.13R
WICHITA        PTCLDY    51  47  86 SE8       30.07R
OMAHA          PTCLDY    43  39  86 CALM      30.07R
LINCOLN        CLEAR     43  40  89 N3        30.07S
FALLS CITY     CLEAR     44  43  96 SE6       30.06R
LAMONI         CLEAR     50  48  93 SE3       30.09R
DES MOINES     CLOUDY    52  38  58 E6        30.10R

$$





USA.gov is the U.S. government's official web portal to all federal, state and local government web resources and services.